Voltar ao catálogo

STARLINK-32354

AtivoComunicaçõesVLEO
NORAD 61932·PAYLOAD·🇺🇸 United States

Lançado Nov 11, 2024 de Cape Canaveral Space Force Station

Loading…

Próximas Passagens (próximas 24 horas)

TLE

AtualizadoSource: CelesTrak SupGP

Época: Sep 15, 2026, 02:12 UTC

1 61932C 24207W   26258.09215278  .00029540  00000+0  10698-2 0  2586
2 61932  43.0011 295.8737 0001263 265.6164 143.6702 15.27568005    18

Acompanhe STARLINK-32354 em tempo real com AllMySat

Download on the App Store